Notices

What's New in latest Release from April 7th, 2021:

- Updated Glossary, including Speed of Maximum Gust, and Total Hourly Precipitation

- Updated national and regional climate services offices contacts and prices information

- Addition of station inventory lists for 1981-2010, 1971-2000, and 1961-1990 Normals.

If you haven't already, please take our survey and provide feedback about our website: https://eccc.sondage-survey.ca/f/LanguageSelection.aspx?s=442ca660-fcf1-47c0-95a9-59707d6fd709

Hourly Data Report for November 17, 2019

VICTORIA UNIVERSITY CS
BRITISH COLUMBIA
Current Station Operator: ECCC - MSC

48°27'25.200" N
123°18'16.600" W
60.10 m
1018598
71783
WYJ

Download Data

Hourly Data (November 2019)
Hourly Data Report for November 17, 2019
TIME
LST
Temp Definition
°C
Dew Point Definition
°C
Rel Hum Definition
%
Precip. Amount Definition
mm

Wind Dir Definition
10's deg

Wind Spd Definition
km/h
Visibility Definition
km
Stn Press Definition
kPa
Hmdx Definition


Wind Chill Definition


Weather Definition


00:00 9.5 9.3 98 1.9 10 3   101.14     LegendNANA
01:00 9.6 9.4 99 1.2 16 4   101.02     LegendNANA
02:00 9.7 9.5 98 2.7 13 2   101.02     LegendNANA
03:00 9.4 9.1 98 1.4 12 2   100.90     LegendNANA
04:00 9.0 8.8 99 1.1 13 2   100.84     LegendNANA
05:00 9.0 8.9 99 1.2 11 2   100.82     LegendNANA
06:00 9.4 9.2 99 1.8 7 2   100.83     LegendNANA
07:00 9.7 9.6 99 0.2 13 4   100.79     LegendNANA
08:00 9.9 9.6 98 0.0 15 4   100.83     LegendNANA
09:00 10.1 9.9 98 0.0 16 4   100.90     LegendNANA
10:00 10.0 9.8 99 0.0 13 1   100.98     LegendNANA
11:00 10.4 10.2 99 0.0 13 5   101.05     LegendNANA
12:00 11.1 10.9 99 0.0 17 9   101.09     LegendNANA
13:00 13.4 10.5 83 0.0 23 13   101.05     LegendNANA
14:00 12.6 9.1 79 0.0 25 18   101.08     LegendNANA
15:00 12.5 8.9 78 0.0 25 17   101.13     LegendNANA
16:00 11.4 8.8 84 0.0 25 14   101.23     LegendNANA
17:00 10.9 8.5 85 0.0 26 12   101.32     LegendNANA
18:00 10.4 8.2 87 0.0 26 9   101.38     LegendNANA
19:00 9.8 7.5 86 0.0 25 6   101.43     LegendNANA
20:00 8.4 6.9 90 0.0 24 4   101.47     LegendNANA
21:00 7.4 6.5 94 0.0 24 5   101.49     LegendNANA
22:00 8.4 7.2 92 0.0 25 6   101.45     LegendNANA
23:00 7.4 6.5 94 0.0 26 5   101.44     LegendNANA

Notes on Data Quality.

Legend

  • E = Estimated
  • M = Missing
  • NA = Not Available*
  • [empty] = Indicates an unobserved value
Date modified: